| time (UTC) | temp F | wind direction | speed knots | gust knots | rain 1hr in | rain 24hr in | rain mn in | humidity % | barometer mb |
| 20260508033745 | 50 | 226 | 1.7 | 1.7 | 0.00 | 0.07 | 0.07 | 56 | 1013.7 |
| 20260508033243 | 50 | 228 | 0.0 | 0.0 | 0.00 | 0.07 | 0.07 | 55 | 1014.0 |
| 20260508032741 | 51 | 231 | 0.9 | 1.7 | 0.00 | 0.07 | 0.07 | 55 | 1013.7 |
| 20260508032238 | 51 | 226 | 0.9 | 1.7 | 0.00 | 0.07 | 0.07 | 54 | 1014.0 |
| 20260508031734 | 51 | 218 | 0.9 | 1.7 | 0.00 | 0.07 | 0.07 | 54 | 1013.7 |
| 20260508031231 | 51 | 225 | 0.9 | 0.9 | 0.00 | 0.07 | 0.07 | 53 | 1013.3 |
| 20260508030727 | 51 | 234 | 2.6 | 4.3 | 0.00 | 0.07 | 0.07 | 53 | 1013.3 |
| 20260508030225 | 50 | 222 | 1.7 | 1.7 | 0.00 | 0.07 | 0.07 | 54 | 1013.7 |
| 20260508025721 | 50 | 228 | 2.6 | 2.6 | 0.00 | 0.07 | 0.07 | 57 | 1013.3 |
| 20260508025218 | 50 | 232 | 0.0 | 0.9 | 0.00 | 0.07 | 0.07 | 56 | 1013.7 |
| 20260508024714 | 51 | 237 | 0.0 | 0.9 | 0.00 | 0.07 | 0.07 | 56 | 1013.3 |
| 20260508024211 | 51 | 230 | 2.6 | 2.6 | 0.00 | 0.07 | 0.07 | 53 | 1013.3 |
| 20260508023707 | 50 | 223 | 0.0 | 0.0 | 0.00 | 0.07 | 0.07 | 55 | 1013.7 |
| 20260508023205 | 51 | 230 | 0.0 | 0.9 | 0.00 | 0.07 | 0.07 | 57 | 1013.3 |
| 20260508022701 | 51 | 228 | 0.0 | 0.9 | 0.00 | 0.07 | 0.07 | 55 | 1013.7 |
| 20260508022158 | 51 | 250 | 0.9 | 1.7 | 0.00 | 0.07 | 0.07 | 55 | 1013.3 |
| 20260508021654 | 51 | 239 | 0.0 | 0.9 | 0.00 | 0.07 | 0.07 | 54 | 1012.9 |
| 20260508021149 | 51 | 237 | 0.9 | 0.9 | 0.00 | 0.07 | 0.07 | 55 | 1012.9 |
| 20260508020648 | 51 | 234 | 0.9 | 0.9 | 0.00 | 0.07 | 0.07 | 54 | 1012.9 |
| 20260508020145 | 52 | 257 | 0.9 | 0.9 | 0.00 | 0.07 | 0.07 | 55 | 1012.9 |
| 20260508015642 | 52 | 227 | 0.9 | 0.9 | 0.00 | 0.07 | 0.07 | 53 | 1012.9 |
| 20260508015139 | 52 | 229 | 0.0 | 0.9 | 0.00 | 0.07 | 0.07 | 53 | 1012.5 |
| 20260508014636 | 51 | 220 | 0.0 | 0.0 | 0.00 | 0.07 | 0.07 | 54 | 1012.9 |
| 20260508014132 | 52 | 238 | 0.0 | 0.9 | 0.00 | 0.07 | 0.07 | 55 | 1012.5 |
| 20260508013628 | 52 | 192 | 0.0 | 0.9 | 0.00 | 0.07 | 0.07 | 56 | 1012.5 |
| 20260508013125 | 52 | 213 | 0.0 | 0.9 | 0.00 | 0.07 | 0.07 | 56 | 1012.5 |
| 20260508012623 | 53 | 222 | 0.0 | 0.0 | 0.00 | 0.07 | 0.07 | 54 | 1012.5 |
| 20260508012119 | 53 | 225 | 0.0 | 0.0 | 0.00 | 0.07 | 0.07 | 55 | 1012.2 |
| 20260508011618 | 53 | 224 | 0.0 | 0.0 | 0.00 | 0.07 | 0.07 | 55 | 1012.2 |
| 20260508011115 | 53 | 222 | 0.0 | 0.9 | 0.00 | 0.07 | 0.07 | 54 | 1012.2 |
| 20260508010611 | 53 | 227 | 1.7 | 1.7 | 0.00 | 0.07 | 0.07 | 54 | 1012.2 |
| 20260508010110 | 53 | 222 | 0.0 | 0.0 | 0.00 | 0.07 | 0.07 | 55 | 1011.9 |
| 20260508005606 | 54 | 213 | 0.0 | 0.0 | 0.00 | 0.07 | 0.07 | 53 | 1011.9 |
| 20260508005102 | 54 | 217 | 0.9 | 1.7 | 0.00 | 0.07 | 0.07 | 53 | 1011.9 |
| 20260508004558 | 55 | 214 | 0.0 | 0.0 | 0.00 | 0.07 | 0.07 | 52 | 1011.9 |
| 20260508004055 | 55 | 187 | 3.5 | 5.2 | 0.00 | 0.07 | 0.07 | 53 | 1011.5 |
| 20260508003552 | 55 | 222 | 0.0 | 0.9 | 0.00 | 0.07 | 0.07 | 51 | 1011.5 |
| 20260508003049 | 56 | 225 | 0.9 | 0.9 | 0.00 | 0.07 | 0.07 | 52 | 1011.5 |
| 20260508002545 | 56 | 221 | 1.7 | 1.7 | 0.00 | 0.07 | 0.07 | 53 | 1011.5 |
| 20260508002043 | 56 | 224 | 0.9 | 0.9 | 0.00 | 0.07 | 0.07 | 53 | 1011.5 |
| 20260508001538 | 56 | 221 | 1.7 | 2.6 | 0.00 | 0.07 | 0.07 | 54 | 1011.5 |
| 20260508001035 | 56 | 241 | 2.6 | 2.6 | 0.00 | 0.07 | 0.07 | 55 | 1011.5 |
| 20260508000531 | 56 | 220 | 0.0 | 0.0 | 0.00 | 0.07 | 0.07 | 58 | 1011.1 |
| 20260508000029 | 56 | 221 | 1.7 | 2.6 | 0.00 | 0.07 | 0.07 | 57 | 1011.1 |
| 20260507235525 | 56 | 252 | 3.5 | 4.3 | 0.00 | 0.07 | 0.07 | 62 | 1010.7 |
| 20260507235022 | 57 | 215 | 0.9 | 1.7 | 0.00 | 0.07 | 0.07 | 70 | 1010.7 |
| 20260507234518 | 57 | 221 | 0.0 | 0.0 | 0.00 | 0.07 | 0.07 | 75 | 1010.7 |
| 20260507234015 | 58 | 208 | 0.9 | 0.9 | 0.00 | 0.07 | 0.07 | 74 | 1010.7 |
| 20260507233512 | 58 | 228 | 0.0 | 0.0 | 0.00 | 0.07 | 0.07 | 76 | 1010.7 |
| 20260507233011 | 57 | 213 | 0.0 | 0.9 | 0.00 | 0.07 | 0.07 | 77 | 1010.4 |
| 20260507232506 | 57 | 216 | 0.9 | 1.7 | 0.00 | 0.07 | 0.07 | 78 | 1010.4 |
| 20260507232004 | 58 | 222 | 0.0 | 0.0 | 0.00 | 0.07 | 0.07 | 78 | 1010.4 |
| 20260507231500 | 59 | 218 | 2.6 | 2.6 | 0.00 | 0.07 | 0.07 | 76 | 1010.1 |
| 20260507230957 | 60 | 211 | 1.7 | 1.7 | 0.00 | 0.07 | 0.07 | 75 | 1010.1 |
| 20260507230454 | 61 | 211 | 1.7 | 1.7 | 0.00 | 0.07 | 0.07 | 74 | 1010.1 |
| 20260507225949 | 60 | 202 | 0.9 | 0.9 | 0.00 | 0.07 | 0.07 | 76 | 1010.1 |
| 20260507225446 | 60 | 212 | 2.6 | 2.6 | 0.00 | 0.07 | 0.07 | 76 | 1010.1 |
| 20260507224942 | 60 | 197 | 1.7 | 2.6 | 0.00 | 0.07 | 0.07 | 77 | 1010.1 |
| 20260507224438 | 59 | 216 | 1.7 | 2.6 | 0.00 | 0.07 | 0.07 | 78 | 1009.7 |
| 20260507223935 | 59 | 177 | 4.3 | 5.2 | 0.00 | 0.07 | 0.07 | 78 | 1010.1 |
| 20260507223431 | 58 | 206 | 2.6 | 4.3 | 0.00 | 0.07 | 0.07 | 80 | 1010.1 |
| 20260507222928 | 58 | 208 | 2.6 | 2.6 | 0.00 | 0.07 | 0.07 | 79 | 1009.7 |
| 20260507222425 | 58 | 225 | 2.6 | 2.6 | 0.00 | 0.07 | 0.07 | 79 | 1009.4 |
| 20260507221921 | 59 | 232 | 3.5 | 5.2 | 0.00 | 0.07 | 0.07 | 77 | 1009.4 |
| 20260507221418 | 60 | 217 | 0.9 | 1.7 | 0.00 | 0.07 | 0.07 | 77 | 1009.4 |
| 20260507220914 | 60 | 196 | 6.1 | 7.8 | 0.00 | 0.07 | 0.07 | 75 | 1009.4 |
| 20260507220412 | 60 | 168 | 3.5 | 5.2 | 0.00 | 0.07 | 0.07 | 75 | 1009.4 |
| 20260507215908 | 61 | 177 | 2.6 | 5.2 | 0.00 | 0.07 | 0.07 | 74 | 1009.4 |
| 20260507215405 | 61 | 197 | 2.6 | 2.6 | 0.00 | 0.07 | 0.07 | 75 | 1009.4 |
| 20260507214902 | 61 | 213 | 5.2 | 7.0 | 0.00 | 0.07 | 0.07 | 75 | 1009.4 |
| 20260507214400 | 60 | 207 | 2.6 | 2.6 | 0.00 | 0.07 | 0.07 | 76 | 1009.4 |
| 20260507213855 | 60 | 213 | 3.5 | 5.2 | 0.00 | 0.07 | 0.07 | 76 | 1009.4 |
| 20260507213352 | 59 | 203 | 4.3 | 5.2 | 0.00 | 0.07 | 0.07 | 76 | 1009.4 |
| 20260507212849 | 60 | 213 | 6.1 | 7.0 | 0.00 | 0.07 | 0.07 | 76 | 1009.0 |
| 20260507212345 | 61 | 200 | 4.3 | 5.2 | 0.00 | 0.07 | 0.07 | 75 | 1009.4 |
| 20260507211842 | 60 | 173 | 3.5 | 4.3 | 0.00 | 0.07 | 0.07 | 77 | 1009.4 |
| 20260507211339 | 61 | 168 | 4.3 | 6.1 | 0.00 | 0.07 | 0.07 | 74 | 1009.4 |
| 20260507210835 | 61 | 192 | 5.2 | 6.1 | 0.00 | 0.07 | 0.07 | 76 | 1009.4 |
| 20260507210332 | 60 | 209 | 4.3 | 7.0 | 0.00 | 0.07 | 0.07 | 76 | 1009.4 |
| 20260507205829 | 59 | 177 | 5.2 | 6.1 | 0.00 | 0.07 | 0.07 | 77 | 1009.4 |
| 20260507205326 | 60 | 211 | 2.6 | 2.6 | 0.00 | 0.07 | 0.07 | 77 | 1009.4 |
| 20260507204822 | 60 | 194 | 0.9 | 0.9 | 0.00 | 0.07 | 0.07 | 77 | 1009.4 |
| 20260507204319 | 59 | 205 | 4.3 | 6.1 | 0.00 | 0.07 | 0.07 | 76 | 1009.4 |
| 20260507203817 | 60 | 204 | 2.6 | 4.3 | 0.00 | 0.07 | 0.07 | 76 | 1009.4 |
| 20260507203315 | 59 | 211 | 1.7 | 1.7 | 0.00 | 0.07 | 0.07 | 77 | 1009.4 |
| 20260507202811 | 60 | 209 | 2.6 | 4.3 | 0.00 | 0.07 | 0.07 | 75 | 1009.4 |
| 20260507202307 | 61 | 188 | 3.5 | 5.2 | 0.00 | 0.07 | 0.07 | 75 | 1009.4 |
| 20260507201802 | 61 | 225 | 1.7 | 2.6 | 0.00 | 0.07 | 0.07 | 76 | 1009.7 |
| 20260507201258 | 60 | 209 | 4.3 | 5.2 | 0.00 | 0.07 | 0.07 | 77 | 1009.4 |
| 20260507200755 | 59 | 216 | 0.0 | 0.9 | 0.00 | 0.07 | 0.07 | 79 | 1009.7 |
| 20260507200251 | 58 | 211 | 1.7 | 2.6 | 0.00 | 0.07 | 0.07 | 79 | 1010.1 |
| 20260507195747 | 58 | 218 | 0.9 | 0.9 | 0.00 | 0.07 | 0.07 | 79 | 1009.7 |
| 20260507195245 | 58 | 180 | 3.5 | 4.3 | 0.00 | 0.07 | 0.07 | 79 | 1009.7 |
| 20260507194742 | 57 | 208 | 3.5 | 4.3 | 0.00 | 0.07 | 0.07 | 80 | 1010.1 |
| 20260507194238 | 57 | 218 | 0.9 | 0.9 | 0.00 | 0.07 | 0.07 | 80 | 1010.1 |
| 20260507193734 | 58 | 193 | 2.6 | 2.6 | 0.00 | 0.07 | 0.07 | 80 | 1010.4 |
| 20260507193231 | 57 | 196 | 2.6 | 2.6 | 0.00 | 0.07 | 0.07 | 79 | 1010.1 |
| 20260507192727 | 58 | 195 | 2.6 | 4.3 | 0.00 | 0.07 | 0.07 | 78 | 1010.4 |
| 20260507192224 | 58 | 223 | 1.7 | 1.7 | 0.00 | 0.07 | 0.07 | 78 | 1010.4 |
| 20260507191720 | 58 | 234 | 0.9 | 1.7 | 0.00 | 0.07 | 0.07 | 80 | 1010.4 |
| 20260507191218 | 59 | 181 | 6.1 | 7.8 | 0.00 | 0.07 | 0.07 | 79 | 1010.4 |
| 20260507190714 | 58 | 220 | 0.9 | 0.9 | 0.00 | 0.07 | 0.07 | 79 | 1010.4 |
| 20260507190213 | 58 | 224 | 0.9 | 1.7 | 0.00 | 0.07 | 0.07 | 82 | 1010.4 |
| 20260507185711 | 57 | 194 | 2.6 | 2.6 | 0.00 | 0.07 | 0.07 | 83 | 1010.7 |
| 20260507185208 | 57 | 223 | 3.5 | 4.3 | 0.00 | 0.07 | 0.07 | 83 | 1010.7 |
| 20260507184705 | 56 | 222 | 0.9 | 0.9 | 0.00 | 0.07 | 0.07 | 83 | 1010.7 |
| 20260507184203 | 55 | 216 | 0.9 | 0.9 | 0.00 | 0.07 | 0.07 | 84 | 1011.1 |
| 20260507183659 | 55 | 231 | 1.7 | 1.7 | 0.00 | 0.07 | 0.07 | 85 | 1010.4 |
| 20260507183156 | 55 | 213 | 1.7 | 1.7 | 0.00 | 0.07 | 0.07 | 85 | 1010.7 |
| 20260507182654 | 54 | 214 | 0.0 | 0.0 | 0.00 | 0.07 | 0.07 | 86 | 1011.1 |
| 20260507182149 | 54 | 211 | 1.7 | 1.7 | 0.00 | 0.07 | 0.07 | 87 | 1011.1 |
| 20260507181645 | 53 | 217 | 0.0 | 0.9 | 0.00 | 0.07 | 0.07 | 87 | 1011.1 |
| 20260507181142 | 53 | 213 | 1.7 | 2.6 | 0.00 | 0.07 | 0.07 | 86 | 1011.1 |
| 20260507180638 | 55 | 209 | 0.9 | 0.9 | 0.00 | 0.07 | 0.07 | 88 | 1011.1 |
| 20260507180136 | 55 | 213 | 0.0 | 0.9 | 0.00 | 0.07 | 0.07 | 87 | 1011.1 |
| 20260507175631 | 54 | 211 | 1.7 | 1.7 | 0.00 | 0.07 | 0.07 | 88 | 1011.1 |
| 20260507175129 | 53 | 223 | 0.0 | 0.0 | 0.00 | 0.07 | 0.07 | 88 | 1011.1 |
| 20260507174626 | 53 | 212 | 0.9 | 0.9 | 0.00 | 0.07 | 0.07 | 88 | 1011.1 |
| 20260507174124 | 54 | 211 | 0.0 | 0.9 | 0.00 | 0.07 | 0.07 | 87 | 1011.5 |
| 20260507173621 | 54 | 221 | 0.0 | 0.0 | 0.00 | 0.07 | 0.07 | 88 | 1011.1 |
| 20260507173118 | 53 | 208 | 0.9 | 0.9 | 0.00 | 0.07 | 0.07 | 87 | 1011.1 |
| 20260507172614 | 54 | 206 | 0.0 | 0.9 | 0.00 | 0.07 | 0.07 | 89 | 1011.5 |
| 20260507172111 | 53 | 221 | 0.0 | 0.9 | 0.00 | 0.07 | 0.07 | 88 | 1011.1 |
| 20260507171606 | 53 | 223 | 0.0 | 0.9 | 0.00 | 0.07 | 0.07 | 87 | 1011.5 |
| 20260507171103 | 53 | 225 | 0.0 | 0.9 | 0.00 | 0.07 | 0.07 | 89 | 1011.5 |
| 20260507170600 | 53 | 223 | 0.0 | 0.0 | 0.00 | 0.07 | 0.07 | 89 | 1011.5 |
| 20260507170057 | 53 | 217 | 0.0 | 0.0 | 0.05 | 0.07 | 0.07 | 90 | 1011.9 |
| 20260507165553 | 52 | 212 | 0.0 | 0.0 | 0.05 | 0.07 | 0.07 | 89 | 1011.9 |
| 20260507165049 | 52 | 226 | 0.0 | 0.0 | 0.00 | 0.06 | 0.06 | 89 | 1011.9 |
| 20260507164546 | 52 | 220 | 0.0 | 0.0 | 0.00 | 0.06 | 0.06 | 88 | 1012.2 |
| 20260507164043 | 52 | 219 | 0.0 | 0.0 | 0.00 | 0.06 | 0.06 | 88 | 1012.2 |
| 20260507163540 | 52 | 209 | 0.0 | 0.0 | 0.00 | 0.06 | 0.06 | 89 | 1011.9 |
| 20260507163038 | 53 | 226 | 0.0 | 0.0 | 0.00 | 0.06 | 0.06 | 89 | 1011.9 |
| 20260507162532 | 52 | 216 | 0.0 | 0.0 | 0.00 | 0.06 | 0.06 | 89 | 1012.2 |
| 20260507162030 | 52 | 216 | 0.9 | 0.9 | 0.07 | 0.06 | 0.06 | 89 | 1012.2 |
| 20260507161526 | 52 | 224 | 0.0 | 0.0 | 0.07 | 0.06 | 0.06 | 89 | 1012.5 |
| 20260507161023 | 52 | 217 | 0.0 | 0.9 | 0.00 | 0.05 | 0.05 | 89 | 1012.5 |
| 20260507160519 | 52 | 220 | 0.0 | 0.0 | 0.05 | 0.05 | 0.05 | 89 | 1012.5 |
| 20260507160015 | 52 | 223 | 0.0 | 0.0 | 0.05 | 0.05 | 0.05 | 89 | 1012.5 |
| 20260507155510 | 52 | 225 | 0.0 | 0.0 | 0.00 | 0.04 | 0.04 | 89 | 1012.5 |
| 20260507155008 | 53 | 221 | 0.0 | 0.0 | 0.00 | 0.04 | 0.04 | 89 | 1012.5 |
| 20260507154504 | 53 | 220 | 0.0 | 0.0 | 0.00 | 0.04 | 0.04 | 90 | 1012.9 |
| 20260507154002 | 52 | 218 | 0.0 | 0.0 | 0.00 | 0.04 | 0.04 | 91 | 1012.5 |
| 20260507153458 | 51 | 215 | 0.0 | 0.0 | 0.00 | 0.04 | 0.04 | 89 | 1012.9 |
| 20260507152954 | 51 | 223 | 0.0 | 0.9 | 0.00 | 0.04 | 0.04 | 90 | 1012.9 |
| 20260507152450 | 51 | 219 | 0.0 | 0.0 | 0.00 | 0.04 | 0.04 | 90 | 1012.5 |
| 20260507151947 | 50 | 220 | 0.0 | 0.0 | 0.00 | 0.04 | 0.04 | 90 | 1012.9 |
| 20260507151443 | 50 | 225 | 0.0 | 0.9 | 0.00 | 0.04 | 0.04 | 89 | 1013.3 |
| 20260507150940 | 51 | 216 | 0.0 | 0.0 | 0.00 | 0.04 | 0.04 | 89 | 1012.9 |
| 20260507150437 | 51 | 221 | 0.0 | 0.0 | 0.07 | 0.04 | 0.04 | 89 | 1012.9 |
| 20260507145933 | 51 | 220 | 0.0 | 0.0 | 0.07 | 0.04 | 0.04 | 89 | 1012.9 |
| 20260507145429 | 51 | 223 | 0.0 | 0.0 | 0.12 | 0.03 | 0.03 | 88 | 1012.9 |
| 20260507144926 | 51 | 215 | 0.9 | 0.9 | 0.07 | 0.02 | 0.02 | 87 | 1013.3 |
| 20260507144423 | 51 | 221 | 0.0 | 0.0 | 0.00 | 0.01 | 0.01 | 86 | 1012.9 |
| 20260507143920 | 51 | 224 | 0.0 | 0.0 | 0.00 | 0.01 | 0.01 | 87 | 1012.5 |
| 20260507143418 | 51 | 223 | 0.0 | 0.0 | 0.00 | 0.01 | 0.01 | 86 | 1012.5 |
| 20260507142914 | 51 | 227 | 0.0 | 0.0 | 0.00 | 0.01 | 0.01 | 86 | 1012.9 |
| 20260507142410 | 51 | 221 | 0.0 | 0.9 | 0.00 | 0.01 | 0.01 | 87 | 1013.3 |
| 20260507141907 | 51 | 222 | 0.0 | 0.0 | 0.00 | 0.01 | 0.01 | 87 | 1012.9 |
| 20260507141403 | 51 | 223 | 0.0 | 0.0 | 0.00 | 0.01 | 0.01 | 87 | 1012.9 |
| 20260507140900 | 51 | 223 | 0.9 | 0.9 | 0.00 | 0.01 | 0.01 | 87 | 1012.9 |
| 20260507140357 | 51 | 220 | 0.0 | 0.0 | 0.00 | 0.01 | 0.01 | 87 | 1013.3 |
| 20260507135855 | 51 | 222 | 0.0 | 0.0 | 0.00 | 0.01 | 0.01 | 87 | 1013.3 |
| 20260507135351 | 51 | 219 | 0.0 | 0.0 | 0.00 | 0.01 | 0.01 | 87 | 1013.3 |
| 20260507134849 | 51 | 228 | 0.0 | 0.9 | 0.00 | 0.01 | 0.01 | 86 | 1013.3 |
| 20260507134345 | 51 | 226 | 0.0 | 0.0 | 0.00 | 0.01 | 0.01 | 87 | 1013.7 |
| 20260507133841 | 51 | 223 | 0.0 | 0.9 | 0.00 | 0.01 | 0.01 | 87 | 1012.9 |
| 20260507133336 | 51 | 223 | 0.0 | 0.0 | 0.00 | 0.01 | 0.01 | 87 | 1013.3 |
| 20260507132835 | 51 | 227 | 0.0 | 0.0 | 0.00 | 0.01 | 0.01 | 87 | 1012.9 |
| 20260507132331 | 51 | 224 | 0.0 | 0.0 | 0.00 | 0.01 | 0.01 | 88 | 1013.3 |
| 20260507131829 | 51 | 225 | 0.0 | 0.0 | 0.00 | 0.01 | 0.01 | 88 | 1013.3 |
| 20260507131326 | 51 | 223 | 0.0 | 0.0 | 0.00 | 0.01 | 0.01 | 88 | 1013.3 |
| 20260507130823 | 51 | 219 | 0.0 | 0.0 | 0.00 | 0.01 | 0.01 | 88 | 1013.3 |
| 20260507130320 | 51 | 225 | 0.0 | 0.0 | 0.00 | 0.01 | 0.01 | 88 | 1013.3 |
| 20260507125819 | 51 | 223 | 0.0 | 0.0 | 0.00 | 0.01 | 0.01 | 88 | 1013.3 |
| 20260507125316 | 51 | 225 | 0.0 | 0.0 | 0.00 | 0.01 | 0.01 | 89 | 1013.3 |
| 20260507124813 | 51 | 222 | 0.0 | 0.0 | 0.00 | 0.01 | 0.01 | 89 | 1013.3 |
| 20260507124309 | 51 | 225 | 0.0 | 0.0 | 0.00 | 0.01 | 0.01 | 89 | 1013.3 |
| 20260507123808 | 51 | 230 | 0.0 | 0.0 | 0.00 | 0.01 | 0.01 | 89 | 1013.3 |
| 20260507123305 | 51 | 227 | 0.0 | 0.0 | 0.00 | 0.01 | 0.01 | 90 | 1012.9 |
| 20260507122800 | 51 | 223 | 0.0 | 0.0 | 0.00 | 0.01 | 0.01 | 90 | 1013.3 |
| 20260507122255 | 51 | 228 | 0.0 | 0.0 | 0.00 | 0.01 | 0.01 | 90 | 1012.9 |
| 20260507121752 | 51 | 229 | 0.0 | 0.0 | 0.00 | 0.01 | 0.01 | 90 | 1013.3 |
| 20260507121248 | 51 | 223 | 0.0 | 0.0 | 0.00 | 0.01 | 0.01 | 90 | 1013.3 |
| 20260507120744 | 51 | 225 | 0.0 | 0.0 | 0.00 | 0.01 | 0.01 | 90 | 1013.3 |
| 20260507120241 | 51 | 224 | 0.0 | 0.0 | 0.00 | 0.01 | 0.01 | 90 | 1013.3 |
| 20260507115737 | 51 | 224 | 0.0 | 0.0 | 0.00 | 0.01 | 0.01 | 91 | 1013.3 |
| 20260507115233 | 51 | 232 | 0.0 | 0.0 | 0.00 | 0.01 | 0.01 | 91 | 1012.9 |
| 20260507114728 | 51 | 230 | 0.0 | 0.9 | 0.00 | 0.01 | 0.01 | 91 | 1012.9 |
| 20260507114226 | 51 | 223 | 0.0 | 0.0 | 0.00 | 0.01 | 0.01 | 91 | 1013.3 |
| 20260507113724 | 51 | 225 | 0.0 | 0.0 | 0.00 | 0.01 | 0.01 | 91 | 1012.9 |
| 20260507113220 | 51 | 223 | 0.0 | 0.0 | 0.00 | 0.01 | 0.01 | 91 | 1012.9 |
| 20260507112718 | 51 | 231 | 0.0 | 0.9 | 0.00 | 0.01 | 0.01 | 91 | 1012.9 |
| 20260507112215 | 51 | 207 | 0.9 | 0.9 | 0.00 | 0.01 | 0.01 | 92 | 1012.9 |
| 20260507111712 | 51 | 228 | 0.9 | 0.9 | 0.00 | 0.01 | 0.01 | 92 | 1012.9 |
| 20260507111210 | 51 | 230 | 0.0 | 0.0 | 0.00 | 0.01 | 0.01 | 92 | 1012.9 |
| 20260507110705 | 51 | 232 | 0.0 | 0.0 | 0.00 | 0.01 | 0.01 | 92 | 1012.5 |
| 20260507110202 | 51 | 224 | 0.0 | 0.0 | 0.00 | 0.01 | 0.01 | 92 | 1012.9 |
| 20260507105659 | 51 | 223 | 0.0 | 0.0 | 0.00 | 0.01 | 0.01 | 92 | 1012.5 |
| 20260507105154 | 51 | 227 | 0.0 | 0.0 | 0.00 | 0.01 | 0.01 | 92 | 1012.5 |
| 20260507104652 | 51 | 226 | 0.0 | 0.0 | 0.00 | 0.01 | 0.01 | 92 | 1012.5 |
| 20260507104148 | 51 | 223 | 0.0 | 0.0 | 0.00 | 0.01 | 0.01 | 92 | 1012.5 |
| 20260507103644 | 51 | 227 | 0.0 | 0.0 | 0.00 | 0.01 | 0.01 | 92 | 1012.2 |
| 20260507103141 | 51 | 225 | 0.0 | 0.0 | 0.00 | 0.01 | 0.01 | 92 | 1012.2 |
| 20260507102638 | 51 | 223 | 0.0 | 0.0 | 0.00 | 0.01 | 0.01 | 92 | 1012.2 |
| 20260507102134 | 51 | 211 | 0.0 | 0.0 | 0.00 | 0.01 | 0.01 | 92 | 1012.2 |
| 20260507101630 | 51 | 225 | 0.0 | 0.0 | 0.00 | 0.01 | 0.01 | 92 | 1012.2 |
| 20260507101126 | 51 | 223 | 0.0 | 0.9 | 0.00 | 0.01 | 0.01 | 92 | 1011.9 |
| 20260507100624 | 52 | 228 | 0.0 | 0.0 | 0.00 | 0.01 | 0.01 | 92 | 1011.9 |
| 20260507100122 | 52 | 226 | 0.0 | 0.0 | 0.00 | 0.01 | 0.01 | 92 | 1012.2 |
| 20260507095619 | 52 | 223 | 0.0 | 0.0 | 0.00 | 0.01 | 0.01 | 92 | 1012.2 |
| 20260507095115 | 53 | 227 | 0.0 | 0.0 | 0.00 | 0.01 | 0.01 | 93 | 1012.2 |
| 20260507094611 | 53 | 226 | 0.0 | 0.0 | 0.00 | 0.01 | 0.01 | 93 | 1012.2 |
| 20260507094108 | 53 | 223 | 0.0 | 0.0 | 0.00 | 0.01 | 0.01 | 92 | 1012.5 |
| 20260507093606 | 53 | 225 | 0.0 | 0.0 | 0.00 | 0.01 | 0.01 | 93 | 1012.2 |
| 20260507093105 | 53 | 222 | 0.0 | 0.0 | 0.00 | 0.01 | 0.01 | 93 | 1011.9 |
| 20260507092600 | 53 | 224 | 0.0 | 0.0 | 0.00 | 0.01 | 0.01 | 92 | 1011.9 |
| 20260507092057 | 54 | 224 | 0.0 | 0.0 | 0.00 | 0.01 | 0.01 | 92 | 1011.9 |
| 20260507091554 | 54 | 222 | 0.0 | 0.0 | 0.00 | 0.01 | 0.01 | 92 | 1011.5 |
| 20260507091050 | 54 | 226 | 0.0 | 0.0 | 0.00 | 0.01 | 0.01 | 92 | 1011.9 |
| 20260507090546 | 55 | 223 | 0.0 | 0.0 | 0.00 | 0.01 | 0.01 | 92 | 1011.9 |
| 20260507090044 | 55 | 223 | 0.0 | 0.0 | 0.00 | 0.01 | 0.01 | 92 | 1012.2 |
| 20260507085541 | 55 | 228 | 0.9 | 0.9 | 0.00 | 0.01 | 0.01 | 92 | 1012.2 |
| 20260507085037 | 55 | 223 | 0.0 | 0.0 | 0.00 | 0.01 | 0.01 | 92 | 1012.2 |
| 20260507084533 | 55 | 223 | 0.0 | 0.0 | 0.00 | 0.01 | 0.01 | 91 | 1012.2 |
| 20260507084031 | 55 | 230 | 0.9 | 0.9 | 0.00 | 0.01 | 0.01 | 91 | 1012.2 |
| 20260507083527 | 56 | 225 | 0.0 | 0.0 | 0.00 | 0.01 | 0.01 | 91 | 1012.2 |
| 20260507083024 | 56 | 224 | 0.0 | 0.9 | 0.00 | 0.01 | 0.01 | 91 | 1011.5 |
| 20260507082520 | 56 | 218 | 0.0 | 0.0 | 0.00 | 0.01 | 0.01 | 90 | 1011.5 |
| 20260507082016 | 56 | 221 | 0.0 | 0.0 | 0.00 | 0.01 | 0.01 | 90 | 1011.5 |
| 20260507081513 | 56 | 216 | 0.0 | 0.0 | 0.00 | 0.01 | 0.01 | 89 | 1011.5 |
| 20260507081010 | 57 | 221 | 0.0 | 0.0 | 0.00 | 0.01 | 0.01 | 89 | 1011.9 |
| 20260507080505 | 57 | 221 | 0.0 | 0.0 | 0.00 | 0.01 | 0.01 | 89 | 1011.9 |
| 20260507080001 | 56 | 225 | 0.0 | 0.0 | 0.00 | 0.01 | 0.01 | 90 | 1011.5 |
| 20260507075457 | 56 | 231 | 0.0 | 0.9 | 0.00 | 0.01 | 0.01 | 91 | 1011.9 |
| 20260507074954 | 56 | 223 | 0.0 | 0.0 | 0.00 | 0.01 | 0.01 | 92 | 1011.9 |
| 20260507074451 | 56 | 223 | 0.0 | 0.0 | 0.00 | 0.01 | 0.01 | 92 | 1011.9 |
| 20260507073949 | 56 | 224 | 0.0 | 0.0 | 0.00 | 0.01 | 0.01 | 92 | 1011.9 |
| 20260507073445 | 56 | 224 | 0.0 | 0.0 | 0.00 | 0.01 | 0.01 | 92 | 1011.5 |
| 20260507072942 | 56 | 224 | 0.0 | 0.0 | 0.00 | 0.01 | 0.01 | 92 | 1012.2 |
| 20260507072439 | 56 | 224 | 0.0 | 0.0 | 0.00 | 0.01 | 0.01 | 92 | 1011.9 |
| 20260507071937 | 56 | 235 | 0.0 | 0.0 | 0.00 | 0.01 | 0.01 | 92 | 1011.5 |
| 20260507071434 | 56 | 222 | 0.0 | 0.0 | 0.00 | 0.01 | 0.01 | 92 | 1011.9 |
| 20260507070930 | 57 | 224 | 0.0 | 0.0 | 0.00 | 0.01 | 0.01 | 92 | 1011.5 |
| 20260507070428 | 57 | 213 | 0.0 | 0.0 | 0.00 | 0.01 | 0.01 | 92 | 1011.1 |
| 20260507065924 | 57 | 237 | 0.0 | 0.0 | 0.00 | 0.01 | 0.01 | 91 | 1011.1 |
| 20260507065421 | 57 | 223 | 0.0 | 0.0 | 0.00 | 0.01 | 0.01 | 91 | 1011.1 |
| 20260507064918 | 57 | 226 | 0.0 | 0.0 | 0.00 | 0.01 | 0.01 | 90 | 1011.5 |
| 20260507064416 | 58 | 224 | 0.0 | 0.0 | 0.00 | 0.01 | 0.01 | 90 | 1011.5 |
| 20260507063914 | 58 | 222 | 0.0 | 0.0 | 0.00 | 0.01 | 0.01 | 90 | 1011.5 |
| 20260507063411 | 58 | 220 | 0.0 | 0.0 | 0.00 | 0.01 | 0.01 | 89 | 1011.1 |
| 20260507062909 | 58 | 197 | 0.0 | 0.0 | 0.00 | 0.01 | 0.01 | 89 | 1011.5 |
| 20260507062405 | 59 | 215 | 0.0 | 0.0 | 0.00 | 0.01 | 0.01 | 88 | 1011.1 |
| 20260507061902 | 59 | 216 | 0.0 | 0.0 | 0.00 | 0.01 | 0.01 | 87 | 1011.1 |
| 20260507061400 | 59 | 229 | 1.7 | 2.6 | 0.00 | 0.01 | 0.01 | 87 | 1011.5 |
| 20260507060858 | 59 | 214 | 2.6 | 2.6 | 0.00 | 0.01 | 0.01 | 86 | 1011.5 |
| 20260507060355 | 59 | 226 | 1.7 | 2.6 | 0.00 | 0.01 | 0.01 | 86 | 1011.5 |
| 20260507055852 | 59 | 197 | 2.6 | 2.6 | 0.00 | 0.01 | 0.01 | 86 | 1011.5 |
| 20260507055346 | 60 | 220 | 0.9 | 0.9 | 0.00 | 0.01 | 0.01 | 86 | 1011.5 |
| 20260507054844 | 60 | 231 | 4.3 | 6.1 | 0.00 | 0.01 | 0.01 | 87 | 1011.5 |
| 20260507054340 | 60 | 228 | 1.7 | 1.7 | 0.00 | 0.01 | 0.01 | 88 | 1011.5 |
| 20260507053837 | 60 | 186 | 3.5 | 4.3 | 0.00 | 0.01 | 0.01 | 89 | 1011.9 |
| 20260507053335 | 60 | 231 | 4.3 | 6.1 | 0.00 | 0.01 | 0.01 | 90 | 1011.9 |
| 20260507052833 | 60 | 183 | 3.5 | 4.3 | 0.00 | 0.01 | 0.01 | 92 | 1011.5 |
| 20260507052330 | 60 | 223 | 1.7 | 2.6 | 0.00 | 0.01 | 0.01 | 93 | 1011.9 |
| 20260507051827 | 60 | 221 | 1.7 | 2.6 | 0.00 | 0.01 | 0.01 | 94 | 1011.9 |
| 20260507051325 | 60 | 213 | 0.9 | 1.7 | 0.00 | 0.01 | 0.01 | 94 | 1011.5 |
| 20260507050822 | 60 | 220 | 2.6 | 5.2 | 0.00 | 0.01 | 0.01 | 95 | 1011.5 |
| 20260507050318 | 60 | 215 | 0.9 | 1.7 | 0.00 | 0.01 | 0.01 | 95 | 1011.1 |
| 20260507045815 | 60 | 230 | 3.5 | 4.3 | 0.00 | 0.01 | 0.01 | 95 | 1011.1 |
| 20260507045312 | 60 | 222 | 1.7 | 1.7 | 0.00 | 0.01 | 0.01 | 94 | 1011.1 |
| 20260507044809 | 60 | 249 | 0.9 | 0.9 | 0.00 | 0.01 | 0.01 | 94 | 1010.7 |
| 20260507044305 | 60 | 220 | 0.0 | 0.9 | 0.00 | 0.01 | 0.01 | 94 | 1010.4 |
| 20260507043801 | 60 | 221 | 0.9 | 0.9 | 0.00 | 0.01 | 0.01 | 94 | 1010.1 |
| 20260507043258 | 60 | 197 | 1.7 | 1.7 | 0.05 | 0.01 | 0.01 | 94 | 1010.1 |
| 20260507042754 | 60 | 213 | 0.0 | 0.0 | 0.05 | 0.01 | 0.01 | 94 | 1010.7 |
| 20260507042249 | 61 | 214 | 0.9 | 1.7 | 0.00 | 0.00 | 0.00 | 94 | 1011.1 |
| 20260507041747 | 61 | 217 | 1.7 | 2.6 | 0.00 | 0.00 | 0.00 | 94 | 1011.1 |
| 20260507041244 | 61 | 235 | 0.9 | 1.7 | 0.00 | 0.00 | 0.00 | 94 | 1011.9 |
| 20260507040741 | 61 | 223 | 0.9 | 1.7 | 0.00 | 0.00 | 0.00 | 94 | 1011.5 |
| 20260507040237 | 61 | 232 | 2.6 | 4.3 | 0.00 | 0.00 | 0.00 | 93 | 1011.5 |
| 20260507035733 | 61 | 232 | 0.9 | 1.7 | 0.07 | 0.18 | 0.18 | 93 | 1011.5 |
| 20260507035228 | 62 | 235 | 2.6 | 2.6 | 0.07 | 0.18 | 0.18 | 93 | 1011.9 |
| 20260507034726 | 62 | 253 | 2.6 | 2.6 | 0.00 | 0.17 | 0.17 | 93 | 1011.5 |
| 20260507034223 | 62 | 218 | 2.6 | 2.6 | 0.00 | 0.17 | 0.17 | 93 | 1011.9 |